Simultaneous Nadir Overpasses (SNOs) Predictions

Prediction of SNOs between AQUA and NOAA-19 Satellite Orbit:

Table of predicted SNOs for the next 14.0 days since TLE Epoch: 10/7/2023
Index Date (AQUA) Time (AQUA) Lat,Lon (AQUA) SZA (AQUA ) Date (NOAA-19) Time (NOAA-19) Lat,Lon (NOAA-19) SZA (NOAA-19 ) Distance(km) Time Diff (sec)
1 10/08/2023 00:26:34 76.15, 166.03 81.82 10/08/2023 00:26:23 76.18, 166.00 81.85 3.14 11
2 10/08/2023 01:16:07 -76.63, -27.93 97.66 10/08/2023 01:17:13 -76.64, -24.94 97.70 77.04 66
3 10/10/2023 05:08:02 76.14, 95.74 82.64 10/10/2023 05:07:45 76.14, 95.59 82.65 3.99 17
4 10/10/2023 05:57:29 -76.33, -97.25 97.15 10/10/2023 05:58:40 -76.37, -96.31 97.13 24.87 71
5 10/12/2023 09:49:29 76.15, 25.37 83.47 10/12/2023 09:49:06 76.14, 25.31 83.47 1.92 23
6 10/12/2023 10:38:53 -76.20,-167.13 96.47 10/12/2023 10:40:04 -76.21,-167.18 96.46 2.13 71
7 10/14/2023 14:30:54 76.13, -44.90 84.27 10/14/2023 14:30:27 76.13, -45.02 84.28 3.08 27
8 10/14/2023 15:20:19 -76.23, 122.45 95.62 10/14/2023 15:21:24 -76.22, 122.57 95.63 3.47 65
9 10/16/2023 19:12:18 76.14,-115.24 85.09 10/16/2023 19:11:47 76.15,-115.21 85.10 1.72 31
10 10/16/2023 20:01:42 -76.18, 52.27 94.86 10/16/2023 20:02:44 -76.21, 52.29 94.83 3.84 62
11 10/18/2023 23:53:40 76.12, 174.51 85.86 10/18/2023 23:53:08 76.11, 174.39 85.87 3.10 32



Historial Predications of SNOs between AQUA and NOAA-19
